AirNav   Everest Fuels
 
 1021 users online  

KAMT Alexander Salamon Airport
West Union, Ohio, USA

GOING TO WEST UNION?


FAA INFORMATION EFFECTIVE 08 OCTOBER 2020

Location

FAA Identifier: AMT
Lat/Long: 38-51-06.0210N 083-33-57.6260W
38-51.100350N 083-33.960433W
38.8516725,-83.5660072
(estimated)
Elevation: 896 ft. / 273.1 m (surveyed)
Variation: 04W (1985)
From city: 4 miles NW of WEST UNION, OH
Time zone: UTC -4 (UTC -5 during Standard Time)
Zip code: 45693

Airport Operations

Airport use: Open to the public
Activation date: 03/1972
Control tower: no
ARTCC: INDIANAPOLIS CENTER
FSS: DAYTON FLIGHT SERVICE STATION
NOTAMs facility: DAY (NOTAM-D service available)
Attendance: UNATTND
Wind indicator: lighted
Segmented circle: no
Lights: ACTVT REILS RWYS 05/23; PAPI RWY 23; MIRL RWY 05/23 - CTAF.
Beacon: white-green (lighted land airport)
Operates sunset to sunrise.

Airport Communications

CTAF/UNICOM: 122.8
  • APCH/DEP SVC PRVDD BY INDIANAPOLIS ARTCC ON FREQS 135.575/290.5 (PORTSMOUTH RCAG).

Nearby radio navigation aids

VOR radial/distance  VOR name  Freq  Var
YRKr299/30.2YORK VORTAC112.8005W
MXQr166/36.4MIDWEST VOR/DME112.9004W
FLMr075/36.9FALMOUTH VOR/DME117.0004W

 
NDB name  Hdg/Dist  Freq  Var  ID
WEST UNIONat field35904WAMT .- -- -
SPORTYS118/33.224504WPWF .--. .-- ..-.
WAVERLY243/35.138506WEOP . --- .--.

Airport Services

Parking: tiedowns

Runway Information

Runway 5/23

Dimensions: 3558 x 65 ft. / 1084 x 20 m
Surface: asphalt, in good condition
Runway edge lights: medium intensity
RUNWAY 5  RUNWAY 23
Latitude: 38-50.893600N38-51.307073N
Longitude: 083-34.226117W083-33.694735W
Elevation: 882.9 ft.896.0 ft.
Traffic pattern: leftleft
Runway heading: 049 magnetic, 045 true229 magnetic, 225 true
Markings: nonprecision, in good conditionnonprecision, in good condition
Visual slope indicator: 4-light PAPI on left (3.30 degrees glide path)
Runway end identifier lights: yesyes
Touchdown point: yes, no lightsyes, no lights
Obstructions: 10 ft. brush, 201 ft. from runway, 170 ft. right of centerline
RWY 05 +4 FT FENCE 0 FT TO 200 FT FM, 195 FT B, +0-TO-10 FT BRUSH, 0 FT TO 200 FT FM, 125 FT R.
10 ft. brush, 201 ft. from runway, 200 ft. left of centerline
RWY 23 +5 FT FENCE 0 FT TO 200 FT FM, 200 FT L, +0-TO-10 FT BRUSH 0 FT TO 200 FT FM, 200 FT L.

Airport Ownership and Management from official FAA records

Ownership: Publicly-owned
Owner: ADAMS CO ARPT AUTH
ADAMS CO. COURT HOUSE
WEST UNION, OH 45693
Phone 937-544-3286
Manager: JASON GROOMS
3399 CROSS ROAD
WINCHESTER, OH 45697
Phone (513) 550-2919
ADDNL CTC: AMT_APT_MGR@ADAMSCOUNTYOH.GOV (937) 544-3286

Airport Operational Statistics

Aircraft based on the field: 14
Single engine airplanes: 14
    
Aircraft operations: avg 100/week *
58% local general aviation
38% transient general aviation
4% air taxi
<1% military
* for 12-month period ending 18 June 2018

Additional Remarks

A30A-23 ADNL OBST, +65 TREES 1450 FT FM 180L 19:1.
TWY MKD W/REFLECTORS
DEER, BIRDS & OTHER WILDLIFE ON & IVOF ARPT.
FOR CD CTC INDIANAPOLIS ARTCC AT 317-247-2411.

Instrument Procedures

NOTE: All procedures below are presented as PDF files. If you need a reader for these files, you should download the free Adobe Reader.

NOT FOR NAVIGATION. Please procure official charts for flight.
FAA instrument procedures published for use from 08 October 2020 at 0901Z to 05 November 2020 at 0900Z.

 
IAPs - Instrument Approach Procedures
RNAV (GPS) RWY 05   download (189KB)
RNAV (GPS) RWY 23   download (193KB)
NOTE: Special Take-Off Minimums/Departure Procedures apply   download (164KB)

Other nearby airports with instrument procedures:

KGEO - Brown County Airport (15 nm W)
KHOC - Highland County Airport (20 nm N)
KFGX - Fleming-Mason Airport (20 nm SW)
I69 - Clermont County Airport (33 nm NW)
KPMH - Greater Portsmouth Regional Airport (34 nm E)
 
Loc | Ops | Rwys | IFR | FBO | Links
Com | Nav | Svcs | Stats | Notes
Area around KAMT (Alexander Salamon Airport)
 
Road maps at: MapQuest Bing Google
 
Aerial photo
WARNING: Photo may not be current or correct
Aerial photo of KAMT (Alexander Salamon Airport)
Photo by David Dietz
Photo taken 09-Jul-2009
looking northeast.

Do you have a better or more recent aerial photo of Alexander Salamon Airport that you would like to share? If so, please send us your photo.

 
Sectional chart

 
Airport distance calculator
Flying to Alexander Salamon Airport? Find the distance to fly.

From to KAMT

Sunrise and sunset
Times for 24-Oct-2020
 Local
(UTC-4)
 Zulu
(UTC)
Morning civil twilight07:2811:28
Sunrise07:5511:55
Sunset18:4222:42
Evening civil twilight19:0923:09

Current date and time
Zulu (UTC)  24-Oct-2020 23:53:29
Local (UTC-4)  24-Oct-2020 19:53:29
 
METAR
KFGX 
20nm SW 
242335Z AUTO 03003KT 10SM OVC025 09/06 A3012 RMK AO2 T00860056
KI69 
33nm NW 
242335Z AUTO 01004KT 10SM SCT033 SCT085 08/03 A3013 RMK AO2 T00830030
KPMH 
34nm E 
242259Z AUTO 04004KT 10SM BKN025 OVC029 10/06 A3013 RMK AO2
KILN 
37nm N 
242254Z AUTO 04007KT 10SM BKN033 BKN090 07/03 A3012 RMK AO2 SLP215 T00720028
KSYM 
38nm S 
240215Z AUTO 31011KT 2 1/2SM +RA FEW003 SCT017 BKN028 19/16 A3003 RMK AO2
TAF
KILN 
37nm N 
242059Z 2421/2518 02008KT P6SM FEW030 BKN250 FM242200 03008KT P6SM SCT025 SCT060 FM251000 04008KT P6SM VCSH BKN040 OVC090 FM251300 05009KT P6SM OVC035
KSYM 
38nm S 
241737Z 2418/2518 VRB04KT P6SM OVC011 FM250400 VRB04KT P6SM VCSH OVC012 FM251100 VRB05KT P6SM VCSH OVC009 FM251200 VRB04KT P6SM OVC009 FM251600 VRB05KT P6SM OVC011 AMD NOT SKED
KLUK 
42nm W 
241735Z 2418/2518 02007KT P6SM BKN025 FM241900 03006KT P6SM SCT025 SCT090 FM250400 04010KT P6SM BKN035 OVC090 FM251000 04010KT P6SM VCSH BKN025 OVC080
NOTAMs
Click for the latest NOTAMs
NOTAMs are issued by the DoD/FAA and will open in a separate window not controlled by AirNav.

 

 
 

Would you like to see your business listed on this page?

 If your business provides an interesting product or service to pilots, flight crews, aircraft, or users of the Alexander Salamon Airport, you should consider listing it here.  To start the listing process, click on the button below
 
Add a business
 

Other Pages about Alexander Salamon Airport

www.adamscountyoh.com/airport.asp
 
Update a link
 
Copyright © AirNav, LLC. All rights reserved. Privacy Policy  Contact